Location: Unspecified
(0.0000°N, 0.0000°E)
Time: 16:39:58
(UTC+00:00)

deb Explorer IX - All Passes

Search period start: 18 June 2019 00:00
Search period end: 28 June 2019 00:00
Orbit: 537 x 1115 km, 38.8° (Epoch: 16 June)

Date Brightness Start Highest point End Pass type
(mag) Time Alt. Az. Time Alt. Az. Time Alt. Az.
18 Jun - 00:13:45 10° WNW 00:18:21 48° SW 00:22:25 10° SSE night (unlit)
18 Jun - 11:05:52 10° SW 11:11:59 60° SE 11:18:56 10° ENE daylight
18 Jun - 12:53:50 10° W 12:59:31 28° NW 13:05:37 10° NNE daylight
18 Jun - 22:05:41 10° N 22:09:35 20° NE 22:13:06 10° E visible
18 Jun - 23:51:55 10° WNW 23:56:38 47° SW 00:00:46 10° SSE night (unlit)
19 Jun - 10:44:10 10° SW 10:50:06 61° SE 10:56:57 10° ENE daylight
19 Jun - 12:32:09 10° W 12:37:38 27° NW 12:43:34 10° NNE daylight
19 Jun - 21:43:37 10° NNW 21:47:50 22° NE 21:51:36 10° E visible
19 Jun - 23:30:04 10° WNW 23:34:54 45° SW 23:39:08 10° SSE night (unlit)
20 Jun - 10:22:26 10° SW 10:28:14 63° SE 10:34:57 10° ENE daylight
20 Jun - 12:10:29 10° W 12:15:44 26° NW 12:21:29 10° NNE daylight
20 Jun - 21:21:32 10° NNW 21:26:05 23° NE 21:30:06 10° E visible
20 Jun - 23:08:10 10° WNW 23:13:10 44° SW 23:17:30 10° SSE night (unlit)
21 Jun - 10:00:44 10° SW 10:06:21 64° SE 10:12:57 10° ENE daylight
21 Jun - 11:48:50 10° W 11:53:52 25° NW 11:59:23 10° NNE daylight
21 Jun - 20:59:28 10° NNW 21:04:18 25° NE 21:08:34 10° E visible
21 Jun - 22:46:16 10° WNW 22:51:25 43° SW 22:55:50 10° SSE night (unlit)
22 Jun - 09:39:03 10° SW 09:44:30 66° SE 09:50:57 10° ENE daylight
22 Jun - 11:27:12 10° W 11:32:00 23° NW 11:37:16 10° NNE daylight
22 Jun - 20:37:23 10° NNW 20:42:30 27° NE 20:47:01 10° E visible
22 Jun - 22:24:20 10° WNW 22:29:38 43° SW 22:34:11 10° SSE night (unlit)
23 Jun - 09:17:22 10° SW 09:22:40 68° SE 09:28:57 10° NE daylight
23 Jun - 11:05:37 10° W 11:10:09 22° NW 11:15:09 10° NNE daylight
23 Jun - 20:15:17 10° NNW 20:20:42 29° NE 20:25:26 10° E visible
23 Jun - 22:02:23 10° WNW 22:07:51 42° SW 22:12:32 10° SSE visible
24 Jun - 08:55:42 10° SW 09:00:50 70° SE 09:06:57 10° NE daylight
24 Jun - 10:44:03 10° W 10:48:18 20° NW 10:53:00 10° N daylight
24 Jun - 19:53:12 10° NNW 19:58:52 31° NE 20:03:49 10° E visible
24 Jun - 21:40:26 10° WNW 21:46:03 41° SW 21:50:51 10° SSE visible
25 Jun - 08:34:02 10° SW 08:39:01 72° SE 08:44:58 10° NE daylight
25 Jun - 10:22:30 10° W 10:26:27 19° NW 10:30:50 10° N daylight
25 Jun - 19:31:06 10° NNW 19:37:00 33° NE 19:42:12 10° E visible
25 Jun - 21:18:27 10° WNW 21:24:13 41° SW 21:29:10 10° SSE visible
26 Jun - 08:12:22 10° SW 08:17:13 74° SE 08:22:58 10° NE daylight
26 Jun - 10:00:59 10° WNW 10:04:38 18° NW 10:08:39 10° N daylight
26 Jun - 19:09:00 10° NNW 19:15:08 35° NE 19:20:32 10° ESE visible
26 Jun - 20:56:28 10° WNW 21:02:22 40° SW 21:07:27 10° SSE visible
27 Jun - 07:50:43 10° SW 07:55:25 77° SE 08:01:00 10° NE daylight
27 Jun - 09:39:30 10° WNW 09:42:50 16° NW 09:46:27 10° N daylight
27 Jun - 18:46:55 10° NNW 18:53:15 36° NE 18:58:52 10° ESE visible
27 Jun - 20:34:27 10° WNW 20:40:30 40° SW 20:45:45 10° SSE visible
